Precipitable_Water
1.41 1.43 1.42 1.44 1.45 1.48 1.46 1.40 1.33 1.32 1.32 1.31 1.29 1.27 1.24 1.22 1.18 1.13 1.11 1.10 1.07 1.04 1.01 1.02 1.06 1.11 1.17 1.11 1.08 1.12 1.16 1.20
1.36 1.46 1.49 1.50 1.51 1.54 1.51 1.45 1.41 1.39 1.35 1.31 1.28 1.24 1.19 1.18 1.14 1.12 1.11 1.08 1.03 0.95 0.91 0.90 0.95 0.99 1.00 0.99 0.99 1.01 1.01 1.03
1.49 1.47 1.47 1.47 1.47 1.44 1.47 1.50 1.48 1.39 1.35 1.29 1.24 1.17 1.12 1.12 1.13 1.11 1.03 0.95 0.92 0.87 0.81 0.78 0.79 0.83 0.84 0.85 0.88 0.89 0.91 0.93
1.47 1.45 1.40 1.42 1.39 1.38 1.38 1.36 1.34 1.33 1.30 1.20 1.16 1.15 1.12 1.09 1.07 0.96 0.87 0.82 0.78 0.74 0.70 0.67 0.71 0.73 0.74 0.74 0.73 0.75 0.76 0.78
1.43 1.40 1.40 1.36 1.31 1.31 1.30 1.29 1.29 1.28 1.24 1.20 1.16 1.14 1.09 0.97 0.83 0.78 0.73 0.69 0.62 0.59 0.58 0.58 0.61 0.67 0.69 0.69 0.70 0.69 0.70 0.72
1.32 1.33 1.32 1.28 1.24 1.21 1.24 1.24 1.23 1.22 1.21 1.17 1.09 1.00 0.85 0.76 0.70 0.64 0.57 0.56 0.55 0.54 0.52 0.52 0.56 0.61 0.67 0.68 0.67 0.66 0.69 0.69
1.24 1.29 1.26 1.18 1.14 1.17 1.20 1.22 1.25 1.24 1.15 1.02 0.90 0.80 0.72 0.66 0.58 0.52 0.51 0.52 0.51 0.49 0.47 0.47 0.49 0.53 0.58 0.64 0.59 0.59 0.60 0.61
1.23 1.22 1.16 1.08 1.09 1.13 1.17 1.21 1.18 1.11 0.94 0.87 0.80 0.74 0.66 0.54 0.46 0.43 0.40 0.40 0.40 0.39 0.35 0.34 0.39 0.47 0.51 0.57 0.55 0.56 0.51 0.51
1.16 1.15 1.08 1.03 1.10 1.10 1.08 1.08 0.97 0.88 0.81 0.76 0.71 0.63 0.53 0.46 0.40 0.32 0.33 0.34 0.33 0.31 0.28 0.28 0.34 0.42 0.45 0.52 0.51 0.49 0.46 0.46
1.14 1.05 0.98 0.93 0.94 0.92 0.84 0.81 0.80 0.79 0.76 0.70 0.62 0.54 0.45 0.39 0.33 0.27 0.26 0.27 0.27 0.24 0.21 0.23 0.30 0.38 0.38 0.40 0.42 0.42 0.41 0.41
0.98 0.93 0.87 0.83 0.81 0.80 0.78 0.76 0.74 0.73 0.69 0.62 0.51 0.43 0.38 0.33 0.29 0.24 0.23 0.23 0.24 0.22 0.20 0.26 0.28 0.30 0.33 0.35 0.37 0.37 0.39 0.40
0.90 0.86 0.83 0.81 0.78 0.80 0.78 0.73 0.69 0.63 0.55 0.48 0.45 0.40 0.36 0.30 0.27 0.22 0.21 0.21 0.22 0.21 0.21 0.30 0.31 0.32 0.32 0.33 0.36 0.37 0.38 0.37
0.84 0.81 0.80 0.78 0.76 0.72 0.68 0.61 0.58 0.52 0.49 0.47 0.44 0.38 0.31 0.28 0.25 0.22 0.21 0.20 0.22 0.23 0.22 0.28 0.30 0.34 0.31 0.32 0.33 0.35 0.35 0.36
0.81 0.80 0.78 0.78 0.75 0.69 0.64 0.61 0.59 0.54 0.51 0.50 0.44 0.36 0.32 0.27 0.23 0.22 0.22 0.20 0.22 0.23 0.22 0.21 0.27 0.32 0.29 0.31 0.27 0.30 0.31 0.32
0.78 0.79 0.76 0.75 0.69 0.66 0.66 0.66 0.62 0.57 0.55 0.53 0.49 0.45 0.39 0.29 0.24 0.23 0.22 0.23 0.21 0.23 0.23 0.20 0.18 0.22 0.25 0.23 0.19 0.21 0.24 0.29
0.80 0.80 0.75 0.73 0.68 0.65 0.64 0.63 0.60 0.63 0.60 0.60 0.60 0.58 0.52 0.41 0.28 0.25 0.24 0.25 0.24 0.24 0.25 0.23 0.21 0.18 0.21 0.22 0.21 0.20 0.14 0.13
0.78 0.78 0.75 0.73 0.69 0.71 0.71 0.70 0.73 0.74 0.71 0.65 0.63 0.61 0.57 0.51 0.38 0.31 0.27 0.26 0.26 0.25 0.25 0.24 0.23 0.21 0.20 0.21 0.21 0.21 0.20 0.17
0.76 0.77 0.76 0.75 0.72 0.75 0.76 0.76 0.78 0.76 0.73 0.67 0.65 0.62 0.59 0.56 0.47 0.32 0.29 0.27 0.27 0.27 0.27 0.26 0.24 0.24 0.23 0.22 0.20 0.18 0.19 0.19
0.75 0.78 0.76 0.77 0.76 0.77 0.79 0.80 0.81 0.79 0.76 0.71 0.67 0.63 0.60 0.58 0.51 0.35 0.29 0.27 0.28 0.28 0.27 0.26 0.26 0.25 0.25 0.24 0.24 0.23 0.24 0.23
0.76 0.78 0.80 0.81 0.80 0.80 0.81 0.83 0.83 0.83 0.82 0.78 0.72 0.67 0.62 0.60 0.52 0.38 0.31 0.28 0.27 0.29 0.28 0.28 0.28 0.27 0.26 0.26 0.26 0.26 0.27 0.26
Wind_Speed
3 3 2 3 2 2 3 4 5 5 5 5 2 1 2 3 5 6 7 8 9 10 11 11 11 9 8 9 9 9 10 12
3 3 2 3 3 3 3 4 5 5 6 5 1 1 2 4 5 6 7 9 9 9 9 10 10 9 9 9 10 10 10 11
2 3 3 3 3 4 4 5 6 5 5 4 3 2 3 4 6 7 8 9 9 10 11 11 10 10 11 11 11 12 12 12
2 2 3 4 5 6 6 6 4 3 2 3 3 3 4 6 7 8 9 9 10 11 12 12 12 11 11 12 12 12 12 12
2 1 3 4 6 7 5 4 3 1 1 2 2 4 6 7 8 9 10 11 11 12 12 12 12 12 12 12 11 11 11 11
2 2 3 6 6 5 4 3 2 1 1 2 3 4 6 8 9 10 10 11 11 12 12 12 12 12 12 12 12 11 11 11
2 2 4 5 5 4 3 2 1 2 1 2 4 6 7 8 9 9 10 11 11 12 13 13 13 13 12 11 11 11 11 11
1 2 3 4 3 3 4 4 4 2 2 3 5 6 8 9 9 10 11 12 12 13 13 13 13 13 12 11 11 12 12 12
2 2 2 3 2 2 3 3 3 2 3 4 5 7 8 8 9 11 11 12 13 13 14 14 13 13 12 11 11 12 12 12
2 1 1 2 3 3 2 2 2 2 3 4 6 7 8 9 10 11 12 12 13 14 15 14 14 12 11 11 11 12 12 13
3 2 1 1 1 1 2 1 2 2 3 4 6 7 9 10 11 11 12 13 14 15 15 14 12 12 11 11 12 12 13 14
4 3 3 2 1 1 1 1 2 2 4 5 6 8 9 10 11 11 12 13 14 15 15 14 13 12 12 12 13 14 14 15
7 5 5 4 4 3 3 2 3 3 4 6 7 9 10 10 10 11 12 13 14 15 15 14 13 13 13 14 15 15 16 17
9 7 6 6 5 5 4 3 4 4 5 6 8 9 9 10 10 11 12 13 14 15 15 15 16 16 16 17 17 18 18 18
11 9 8 7 6 6 5 4 4 5 6 7 8 9 10 10 11 12 13 14 15 16 16 17 17 18 18 19 19 19 20 20
13 11 10 9 8 7 7 6 6 7 7 8 8 9 10 11 12 13 14 15 16 17 18 18 18 18 19 19 19 19 20 21
15 13 12 11 10 9 8 7 7 7 8 8 9 9 10 12 13 14 15 16 17 18 19 19 19 19 19 20 20 20 21 20
17 16 14 13 12 12 11 10 9 9 9 9 10 11 12 13 14 16 16 17 18 19 20 20 21 20 21 21 21 21 22 21
19 18 16 16 15 15 14 13 12 12 11 11 12 12 13 15 16 17 17 18 19 20 21 22 22 22 22 22 22 22 22 22
21 20 18 18 18 17 16 16 15 15 14 14 14 14 15 15 17 18 19 20 21 22 22 23 23 23 23 24 23 23 23 23
Wind_Direction
73 61 50 17 332 342 345 343 341 345 337 331 320 320 345 350 353 356 352 345 338 330 327 323 322 321 311 315 321 325 319 304
82 60 33 27 37 19 11 356 352 356 355 339 326 14 349 347 351 353 346 342 343 343 341 335 331 328 322 317 316 318 319 319
68 31 34 10 358 346 337 332 327 336 1 38 84 43 13 4 352 345 343 343 339 339 336 334 330 323 317 312 311 312 312 311
356 3 360 352 337 332 326 326 325 335 33 58 63 32 13 352 348 347 346 341 339 334 332 331 331 325 318 316 315 313 312 312
324 316 341 343 336 331 323 330 334 347 53 37 7 356 350 348 347 343 340 337 336 335 336 334 333 328 326 324 321 318 317 317
321 314 323 332 336 338 338 339 322 177 32 356 346 349 348 344 340 341 341 341 339 338 338 338 335 330 326 324 324 323 322 320
317 313 336 342 347 356 358 352 114 141 44 25 352 343 342 345 345 345 343 342 339 336 336 334 335 332 330 324 325 327 325 323
308 327 347 0 16 31 53 80 96 92 32 7 355 346 343 345 346 346 346 344 341 339 337 334 332 333 330 325 322 323 324 322
295 320 353 21 53 61 68 84 88 69 25 8 355 350 350 349 347 347 345 345 342 340 339 336 331 330 330 326 323 322 322 322
265 264 36 65 81 83 82 81 69 48 14 359 353 351 349 347 347 347 347 346 345 341 338 334 330 327 328 327 325 323 324 323
222 204 196 159 105 94 79 58 27 15 360 349 350 347 345 346 345 346 347 347 345 342 340 339 338 335 330 326 323 322 321 320
218 222 234 229 224 236 291 322 344 348 349 345 342 343 343 344 346 348 348 347 345 344 344 344 341 337 335 331 325 322 320 320
225 231 233 235 248 251 259 275 296 320 336 339 340 341 343 345 345 346 345 344 343 342 341 340 338 332 328 327 324 319 316 316
230 229 227 238 245 249 257 258 285 305 323 334 338 340 342 343 343 341 341 340 340 339 335 331 328 321 317 316 312 311 313 312
227 228 232 241 240 244 247 262 271 293 308 323 331 337 341 342 339 338 338 337 336 335 333 329 324 325 319 312 313 308 308 305
229 233 239 239 236 239 242 259 272 287 301 312 319 326 332 336 334 334 334 333 332 332 331 329 324 321 320 319 317 312 310 308
230 234 239 236 236 240 248 259 273 285 298 306 312 318 322 325 328 330 330 329 329 329 328 327 325 322 319 315 315 315 314 309
231 233 238 236 237 242 247 255 265 274 285 295 303 309 314 319 321 323 325 325 325 325 326 325 324 321 319 317 315 313 312 309
231 234 239 239 243 245 248 255 262 267 276 285 295 300 307 312 317 319 321 322 322 322 323 323 321 320 318 317 315 314 312 310
231 236 240 242 244 247 250 256 262 267 274 281 290 298 303 307 313 316 318 319 320 319 320 320 319 319 317 317 315 313 312 310